Theta_e
327 326 327 326 325 324 323 325 325 327 327 328 330 330 328 326 325 326 324 322 322 322
328 327 327 326 326 325 325 325 328 327 327 328 328 329 327 325 326 324 326 325 325 324
328 328 327 325 325 325 325 327 327 327 328 327 328 328 327 325 327 323 323 323 323 324
325 327 326 326 328 324 324 329 326 327 328 328 327 326 326 326 326 323 322 322 322 323
328 326 326 325 328 324 323 324 325 328 329 328 326 324 328 325 326 323 323 323 321 322
327 326 325 324 328 326 325 327 324 327 327 327 326 328 328 327 327 326 324 322 322 321
326 326 325 325 325 328 328 325 327 328 327 328 327 328 328 328 327 326 326 324 323 323
326 326 325 325 325 329 327 328 329 328 327 326 324 322 322 329 326 324 322 322 324 326
328 326 325 324 324 326 325 328 328 324 325 321 321 305 307 320 325 325 322 322 323 322
329 328 326 326 325 324 323 326 326 324 322 319 314 302 302 310 325 322 321 323 325 323
328 327 328 327 324 324 323 325 323 324 321 317 314 302 301 309 324 322 324 323 323 323
328 327 327 326 323 324 324 324 323 324 320 317 314 303 302 318 324 323 324 326 324 325
326 327 325 324 324 325 326 324 326 325 322 315 315 304 301 318 327 323 321 322 321 311
326 329 327 326 327 326 324 324 324 323 323 320 316 313 302 309 325 323 321 321 320 317
Wind_Speed
7 5 4 5 4 4 3 4 3 3 3 3 4 5 4 2 3 4 3 5 5 4
6 7 6 6 4 3 4 3 4 4 2 1 1 1 4 3 3 1 3 4 3 3
7 6 6 6 5 5 4 5 4 4 3 2 4 2 2 1 1 6 3 2 3 3
6 7 6 6 5 5 3 5 5 5 4 4 3 2 1 2 5 6 4 2 3 4
7 7 6 6 6 4 3 2 5 5 5 4 4 2 3 2 2 5 5 3 5 4
7 6 5 6 6 5 5 5 1 6 6 5 3 2 1 2 3 4 5 4 3 3
7 7 6 5 4 3 6 4 6 6 7 5 4 4 2 1 4 5 4 4 3 3
7 6 6 5 3 2 5 6 5 6 6 6 6 4 5 3 6 6 6 5 5 7
8 7 6 4 3 3 4 6 5 6 9 6 4 7 9 5 6 6 6 8 8 8
9 7 7 6 5 4 5 5 6 7 8 7 5 7 9 7 6 6 5 8 8 8
10 9 6 6 6 4 3 5 5 6 7 6 4 7 8 5 7 6 6 7 9 10
12 8 7 6 6 4 5 4 4 5 6 7 5 6 8 5 5 6 7 8 9 10
10 12 8 8 7 4 3 4 5 6 6 8 5 4 7 6 5 7 7 7 8 12
8 8 8 7 4 4 4 6 7 7 5 7 5 3 7 7 5 7 6 7 6 6
Wind_Direction
117 114 108 107 118 142 155 164 159 165 161 206 218 220 186 173 217 216 226 216 203 191
101 101 106 102 122 129 133 150 161 166 158 48 15 122 160 186 218 193 94 38 79 137
128 131 134 119 128 131 163 149 169 157 130 105 64 69 142 206 8 77 91 73 52 101
134 129 131 122 144 143 125 172 164 161 152 123 122 86 66 118 102 104 83 60 93 114
120 119 121 123 141 159 185 196 188 164 130 106 94 53 93 69 119 132 116 89 84 104
125 132 147 147 168 178 204 226 178 136 113 117 111 90 112 143 161 167 143 120 98 108
139 151 161 159 186 194 214 143 135 137 126 130 90 35 339 111 84 100 113 118 113 84
138 149 151 154 173 68 138 135 141 126 123 99 71 32 5 63 101 110 97 78 70 93
137 146 145 157 141 98 106 119 133 89 103 94 76 19 24 69 105 97 107 103 90 97
145 145 156 166 158 142 131 123 112 103 102 97 85 28 27 33 99 104 102 100 100 93
158 167 160 152 158 150 127 124 130 114 108 106 74 36 22 60 110 108 102 101 103 108
158 153 153 157 163 152 131 129 139 125 121 113 91 39 24 105 110 99 96 105 115 120
149 143 140 142 159 168 156 157 127 111 118 113 107 42 37 103 107 102 100 95 108 118
140 132 131 135 140 132 129 119 113 117 122 110 123 81 49 122 117 119 113 118 121 126